673  
NZUS99 KDVN 132010  
HRRRRR  
HOURLY WEATHER ROUNDUP  
NATIONAL WEATHER SERVICE QUAD CITIES IA IL  
300 PM CDT THU AUG 13 2020  
 
NOTE: "FAIR" INDICATES FEW OR NO CLOUDS BELOW 12,000 FEET WITH  
NO SIGNIFICANT WEATHER AND/OR OBSTRUCTIONS TO VISIBILITY.  
------------------------------------------------------------------  
 
CITY SKY/WX TMP DP RH WIND PRES REMARKS  
BURLINGTON MOSUNNY 88 70 55 E9 30.02F HX 93  
CEDAR RAPIDS MOSUNNY 81 70 69 E12 30.03F HX 84  
DAVENPORT SUNNY 85 66 53 E9 30.05F HX 87  
DUBUQUE MOSUNNY 82 69 64 SE8 30.07F HX 85  
IOWA CITY MOSUNNY 85 70 60 E9 30.04F HX 89  
MOLINE SUNNY 86 67 52 SE8 30.03F HX 89  
------------------------------------------------------------------  
THE STATIONS BELOW ARE NOT NWS STATIONS AND ARE NOT SUBJECT TO NWS  
QUALITY CONTROL. SOME STATIONS DO NOT REPORT WEATHER SUCH AS FOG.  
* - STATIONS THAT REPORT TMP AND DP IN WHOLE DEGREES CELSIUS, WHICH  
ARE THEN CONVERTED TO FAHRENHEIT.  
------------------------------------------------------------------  
 
CITY SKY/WX TMP DP RH WIND PRES REMARKS  
CLINTON SUNNY 84 69 60 SE12 30.06F HX 88  
FAIRFIELD * MOSUNNY 86 73 66 SE10 30.02F HX 93  
FORT MADISON * MOSUNNY 84 73 70 E6 30.02F HX 91  
FREEPORT SUNNY 82 63 51 SE7 30.09F HX 83  
INDEPENDENCE MOSUNNY 88 70 56 SE12 30.04F HX 92  
KEOKUK * MOSUNNY 86 73 66 E12 30.01F HX 93  
MACOMB MOSUNNY 84 71 63 E6 30.04F HX 89  
MONTICELLO * MOSUNNY 84 68 58 SE13 30.05F HX 87  
MT PLEASANT * PTSUNNY 88 72 58 E9 30.02F HX 94  
MUSCATINE * MOSUNNY 88 68 51 SE7 30.02F HX 91  
SAVANNA * SUNNY 86 64 48 CALM 30.05F HX 87  
STERLING/R.F. MOSUNNY 85 66 53 VRB6 30.05F HX 87  
VINTON MOSUNNY 88 73 60 SE9 30.03F HX 95  
WASHINGTON * SUNNY 86 70 58 SE9 30.01F HX 90  
------------------------------------------------------------------  
 
 
CLICK HERE TO GO TO PREVIOUS BULLETINS.

The Nexlab IL Page
The Nexlab IA Page
The Nexlab MO Page Main Text Page